| time (UTC) | temp F | wind direction | speed MPH | gust MPH | rain 1hr in | rain 24hr in | rain mn in | humidity % | barometer mb |
| 20260904061508 | 83 | 54 | 0.0 | 4.0 | 0.00 | 0.00 | 0.00 | 49 | 992.9 |
| 20260904055911 | 67 | 259 | 0.0 | 0.0 | 0.00 | 0.00 | 0.00 | 65 | 1015.4 |
| 20260904051214 | 77 | 179 | 1.0 | 4.0 | 0.00 | 0.00 | 0.00 | 54 | 992.6 |
| 20260904035908 | 65 | 259 | 0.0 | 0.0 | 0.00 | 0.00 | 0.00 | 60 | 1014.6 |
| 20260904031541 | 76 | 265 | 0.0 | 0.0 | 0.00 | 0.00 | 0.00 | 68 | 992.0 |
| 20260904015912 | 67 | 259 | 0.0 | 2.0 | 0.00 | 0.00 | 0.00 | 56 | 1014.4 |
| 20260904011627 | 75 | 305 | 0.0 | 0.0 | 0.00 | 0.00 | 0.00 | 69 | 992.2 |
| 20260903235859 | 71 | 259 | 0.0 | 2.0 | 0.00 | 0.00 | 0.00 | 51 | 1014.3 |
| 20260903231529 | 78 | 220 | 0.0 | 1.0 | 0.00 | 0.00 | 0.00 | 74 | 992.4 |
| 20260903215926 | 74 | 259 | 0.0 | 0.0 | 0.00 | 0.00 | 0.00 | 43 | 1013.7 |
| 20260903201433 | 80 | 57 | 0.0 | 5.0 | 0.00 | 0.00 | 0.00 | 76 | 992.5 |
| 20260903195913 | 80 | 259 | 0.0 | 0.0 | 0.00 | 0.00 | 0.00 | 33 | 1013.3 |
| 20260903191140 | 81 | 360 | 1.0 | 6.0 | 0.00 | 0.00 | 0.00 | 80 | 992.3 |
| 20260903175917 | 90 | 240 | 1.0 | 4.0 | 0.00 | 0.00 | 0.00 | 29 | 1012.4 |
| 20260903171630 | 82 | 34 | 0.0 | 2.0 | 0.00 | 0.00 | 0.00 | 71 | 991.0 |
| 20260903155915 | 96 | 258 | 4.0 | 9.0 | 0.00 | 0.00 | 0.00 | 29 | 1012.2 |
| 20260903151504 | 83 | 32 | 2.0 | 8.0 | 0.00 | 0.00 | 0.00 | 70 | 991.1 |
| 20260903135916 | 97 | 285 | 2.0 | 8.0 | 0.00 | 0.00 | 0.00 | 33 | 1012.4 |
| 20260903131204 | 88 | 306 | 3.0 | 11.0 | 0.00 | 0.00 | 0.00 | 63 | 991.4 |
| 20260903125911 | 95 | 338 | 3.0 | 13.0 | 0.00 | 0.00 | 0.00 | 35 | 1012.9 |
| 20260903115909 | 94 | 296 | 3.0 | 10.0 | 0.00 | 0.00 | 0.00 | 41 | 1013.4 |
| 20260903111606 | 87 | 60 | 2.0 | 8.0 | 0.00 | 0.00 | 0.00 | 53 | 991.9 |
| 20260903095911 | 87 | 260 | 1.0 | 5.0 | 0.00 | 0.00 | 0.00 | 55 | 1014.3 |
| 20260903091514 | 85 | 116 | 3.0 | 9.0 | 0.00 | 0.00 | 0.00 | 63 | 992.8 |
| 20260903080307 | 85 | 107 | 3.0 | 7.0 | 0.00 | 0.00 | 0.00 | 63 | 992.4 |
| 20260903075907 | 78 | 13 | 4.0 | 9.0 | 0.00 | 0.00 | 0.00 | 61 | 1014.3 |
| 20260903065904 | 74 | 5 | 3.0 | 6.0 | 0.00 | 0.00 | 0.00 | 67 | 1014.3 |